Location: Kernascl�den
(48.0062°N, 3.3198°W)
Time: 00:08:44
(UTC+00:00)

Meteor 2-1 Rocket - Visible Passes

Search period start: 11 May 2021 00:00
Search period end: 21 May 2021 00:00
Orbit: 828 x 909 km, 81.3° (Epoch: 10 May)

Date Brightness Start Highest point End Pass type
(mag) Time Alt. Az. Time Alt. Az. Time Alt. Az.
11 May 7.1 02:50:14 10° NNE 02:53:59 18° ENE 02:57:41 10° E visible
12 May 7.0 02:43:29 10° NNE 02:47:17 18° ENE 02:51:01 10° E visible
13 May 7.0 02:36:44 10° NNE 02:40:34 18° ENE 02:44:20 10° ESE visible
14 May 6.9 02:29:59 10° NNE 02:33:51 18° ENE 02:37:40 10° ESE visible
15 May 6.9 02:23:14 10° NNE 02:27:09 18° ENE 02:30:59 10° ESE visible
16 May 6.9 02:16:30 10° NNE 02:20:26 19° ENE 02:24:18 10° ESE visible
17 May 6.8 02:09:46 10° NNE 02:13:43 19° ENE 02:17:37 10° ESE visible
17 May 4.2 03:52:04 10° NNW 03:57:44 76° W 04:03:16 10° S visible
18 May 6.8 02:03:00 10° NNE 02:07:01 19° ENE 02:10:57 10° ESE visible
18 May 4.2 03:45:20 10° NNW 03:51:00 74° W 03:56:32 10° S visible
19 May 6.7 01:56:16 10° NNE 02:00:18 20° ENE 02:04:16 10° ESE visible
19 May 4.2 03:38:37 10° NNW 03:44:16 73° W 03:49:47 10° S visible
20 May 6.7 01:49:31 10° NNE 01:53:35 20° ENE 01:57:35 10° ESE visible
20 May 4.2 03:31:54 10° NNW 03:37:32 72° W 03:43:02 10° S visible
